This is the latest recevied weather packets stored in our database for station/object KD5UMO-1. If no packets are shown the sender has not sent any weather packets the latest 1 day(s).
| Time | Temp. | Humidity | Pressure | Rain* | Wind** | Luminosity | Snow |
|---|---|---|---|---|---|---|---|
| 1778036061 | 20° C | 76% | 1008.5 hPa | 0 mm | - | 0 W/m² | - |
| 1778035150 | 20.56° C | 75% | 1007.9 hPa | 0 mm | - | 0 W/m² | - |
| 1778034847 | 20.56° C | 75% | 1007.7 hPa | 0 mm | - | 0 W/m² | - |
| 1778034544 | 20.56° C | 75% | 1007.6 hPa | 0 mm | - | 0 W/m² | - |
| 1778034242 | 20.56° C | 75% | 1007.4 hPa | 0 mm | - | 0 W/m² | - |
| 1778033939 | 21.11° C | 75% | 1007.4 hPa | 0 mm | - | 0 W/m² | - |
| 1778033636 | 21.11° C | 75% | 1007.2 hPa | 0 mm | - | 0 W/m² | - |
| 1778033333 | 21.11° C | 74% | 1007 hPa | 0 mm | - | 0 W/m² | - |
| 1778033031 | 21.67° C | 74% | 1006.7 hPa | 0 mm | - | 0 W/m² | - |
| 1778032728 | 22.22° C | 73% | 1006.7 hPa | 0 mm | - | 0 W/m² | - |
| 1778032122 | 22.78° C | 72% | 1006.9 hPa | 0 mm | - | 0 W/m² | - |
| 1778031819 | 22.78° C | 71% | 1006.7 hPa | 0 mm | - | 0 W/m² | - |
| 1778031515 | 22.78° C | 71% | 1006.5 hPa | 0 mm | - | 0 W/m² | - |
| 1778030909 | 22.78° C | 70% | 1006.5 hPa | 0 mm | - | 0 W/m² | - |
| 1778030304 | 22.78° C | 70% | 1006.6 hPa | 0 mm | - | 0 W/m² | - |
| 1778030000 | 22.78° C | 69% | 1006.4 hPa | 0 mm | - | 1 W/m² | - |
| 1778029698 | 22.78° C | 68% | 1006 hPa | 0 mm | - | 1 W/m² | - |
| 1778029092 | 23.33° C | 69% | 1005.8 hPa | 0 mm | - | 4 W/m² | - |
| 1778028789 | 23.33° C | 69% | 1005.5 hPa | 0 mm | - | 5 W/m² | - |
| 1778028485 | 23.33° C | 69% | 1005.6 hPa | 0 mm | - | 5 W/m² | - |
| 1778028183 | 23.33° C | 69% | 1005.9 hPa | 0 mm | - | 4 W/m² | - |
| 1778026968 | 23.89° C | 67% | 1005.8 hPa | 0 mm | - | 21 W/m² | - |
| 1778026664 | 24.44° C | 67% | 1005.7 hPa | 0 mm | - | 28 W/m² | - |
| 1778025756 | 25.56° C | 64% | 1005.3 hPa | 0 mm | - | 60 W/m² | - |
| 1778024847 | 26.11° C | 63% | 1004.8 hPa | 0 mm | - | 35 W/m² | - |
* Rain latest hour (hover to see other rain measurements)
** Current wind speed in m/s (hover to see current wind gust speed)